TimeEDT,TemperatureF,Dew PointF,Humidity,Sea Level PressureIn,VisibilityMPH,Wind Direction,Wind SpeedMPH,Gust SpeedMPH,PrecipitationIn,Events,Conditions,WindDirDegrees,DateUTC
12:53 AM,54.0,50.0,86,30.23,10.0,Calm,Calm,-,N/A,,Clear,0,2011-10-05 04:53:00
1:53 AM,54.0,51.1,90,30.24,10.0,Calm,Calm,-,N/A,,Clear,0,2011-10-05 05:53:00
2:53 AM,51.1,48.0,89,30.24,10.0,Calm,Calm,-,N/A,,Clear,0,2011-10-05 06:53:00
3:53 AM,51.1,48.0,89,30.24,10.0,Calm,Calm,-,N/A,,Clear,0,2011-10-05 07:53:00
4:53 AM,50.0,46.9,89,30.24,10.0,East,3.5,-,N/A,,Clear,80,2011-10-05 08:53:00
5:53 AM,48.9,46.9,93,30.25,10.0,Calm,Calm,-,N/A,,Clear,0,2011-10-05 09:53:00
6:53 AM,48.9,46.0,90,30.27,10.0,Calm,Calm,-,N/A,,Clear,0,2011-10-05 10:53:00
7:53 AM,50.0,46.0,86,30.28,10.0,Calm,Calm,-,N/A,,Partly Cloudy,0,2011-10-05 11:53:00
8:53 AM,52.0,48.9,89,30.29,10.0,ENE,3.5,-,N/A,,Clear,70,2011-10-05 12:53:00
9:53 AM,57.9,52.0,81,30.30,10.0,ENE,3.5,-,N/A,,Clear,60,2011-10-05 13:53:00
10:53 AM,64.0,52.0,65,30.29,10.0,Calm,Calm,-,N/A,,Clear,0,2011-10-05 14:53:00
11:53 AM,69.1,53.1,57,30.28,10.0,Variable,3.5,-,N/A,,Clear,0,2011-10-05 15:53:00
12:53 PM,72.0,52.0,49,30.27,10.0,Calm,Calm,-,N/A,,Clear,0,2011-10-05 16:53:00
1:53 PM,75.9,50.0,40,30.24,10.0,Calm,Calm,-,N/A,,Clear,0,2011-10-05 17:53:00
2:53 PM,78.1,46.9,33,30.22,10.0,North,4.6,-,N/A,,Clear,10,2011-10-05 18:53:00
3:53 PM,79.0,50.0,36,30.19,10.0,NNW,4.6,-,N/A,,Clear,340,2011-10-05 19:53:00
4:53 PM,79.0,51.1,38,30.18,10.0,ENE,4.6,-,N/A,,Clear,60,2011-10-05 20:53:00
5:53 PM,79.0,50.0,36,30.17,10.0,NNE,6.9,-,N/A,,Clear,30,2011-10-05 21:53:00
6:53 PM,73.9,46.0,37,30.17,10.0,NE,5.8,-,N/A,,Clear,50,2011-10-05 22:53:00
7:53 PM,70.0,48.9,47,30.19,10.0,NNE,3.5,-,N/A,,Clear,30,2011-10-05 23:53:00
8:53 PM,66.0,51.1,59,30.19,10.0,Calm,Calm,-,N/A,,Clear,0,2011-10-06 00:53:00
9:53 PM,64.0,52.0,65,30.19,10.0,NE,3.5,-,N/A,,Clear,50,2011-10-06 01:53:00
10:53 PM,60.1,52.0,75,30.20,10.0,Calm,Calm,-,N/A,,Clear,0,2011-10-06 02:53:00
11:53 PM,57.9,52.0,81,30.20,10.0,Calm,Calm,-,N/A,,Clear,0,2011-10-06 03:53:00